Temperature
16 16 16 15 15 15 15 15 15 15 15 15 15 15 15 15 15 15 15 15 15 15 15 15 15 15 15 15 15 15 15 15 15 15 15 15 15 15 15 15 15 15 15
16 16 15 15 15 15 15 15 15 15 15 15 15 15 14 15 15 15 14 14 14 14 14 14 15 15 15 14 15 15 15 14 14 15 14 14 14 14 14 14 14 14 14
16 16 15 15 15 15 15 15 15 15 15 14 14 14 14 14 14 14 14 14 14 14 14 14 14 14 14 14 14 14 14 14 14 14 14 14 14 14 14 14 14 14 14
16 15 15 15 15 15 15 15 15 14 14 14 14 14 14 14 14 14 14 14 14 14 14 14 14 14 14 14 14 14 14 14 14 14 14 14 14 14 14 14 14 14 14
15 15 15 15 15 15 15 14 14 14 14 14 14 14 14 14 14 14 14 14 14 14 14 14 14 14 14 14 14 14 14 14 14 14 14 13 13 13 13 13 14 14 14
15 15 15 15 15 15 14 14 14 14 14 14 14 13 13 13 14 14 14 14 14 14 14 14 14 14 14 14 13 13 13 13 13 13 13 13 13 13 13 13 13 13 13
15 15 15 15 15 14 14 14 14 14 14 14 14 13 13 13 13 13 13 13 14 14 14 14 14 13 13 13 13 13 13 13 13 13 13 13 13 13 13 13 13 13 13
15 15 15 15 14 14 14 14 14 14 14 13 13 13 13 13 13 13 13 13 13 13 13 13 13 13 13 13 13 13 13 13 13 13 13 13 13 13 13 13 13 13 13
15 15 15 14 14 14 14 14 14 14 14 13 13 13 13 13 13 13 13 13 13 13 13 13 13 13 13 13 13 13 13 13 13 13 13 13 12 12 12 12 12 12 12
15 15 14 14 14 14 14 14 14 14 13 13 13 13 13 13 13 13 13 13 13 13 13 13 13 13 13 13 13 13 13 13 12 12 12 12 12 12 12 12 12 12 12
15 15 14 14 14 14 14 14 14 13 13 13 13 13 13 13 13 13 12 12 12 12 12 12 13 13 13 13 13 13 12 12 12 12 12 12 12 12 12 12 12 12 12
15 14 14 14 14 14 14 14 13 13 13 13 13 13 13 13 13 13 12 12 12 12 12 12 12 12 12 12 12 12 12 12 12 12 12 12 12 12 12 12 12 12 12
15 14 14 14 14 14 14 13 13 13 13 13 13 13 13 13 13 13 12 12 12 12 12 12 12 12 12 12 12 12 12 12 12 12 12 12 12 12 12 12 12 12 11
14 14 14 14 14 14 13 13 13 13 13 13 13 13 13 13 12 12 12 12 12 12 12 12 12 12 12 12 12 12 12 12 12 12 12 12 12 12 12 12 12 12 11
14 14 14 14 13 13 13 13 13 13 13 13 13 13 12 13 12 12 12 12 12 11 11 12 12 12 12 12 12 12 12 12 11 11 11 11 11 11 11 11 11 11 11
14 14 14 14 13 13 13 13 13 13 13 13 12 12 12 12 12 12 12 12 11 11 11 11 11 11 11 11 11 11 11 11 11 11 11 11 11 11 11 11 11 11 11
14 14 14 14 13 13 13 13 13 13 13 12 12 12 12 12 12 12 12 11 11 11 11 11 11 11 11 11 11 11 11 11 11 11 11 11 11 11 11 11 11 11 11
14 14 14 13 13 13 13 13 13 13 12 12 12 12 12 12 12 12 12 11 11 11 11 11 11 11 11 11 11 11 11 11 11 11 11 11 11 11 11 11 11 11 11
14 14 13 13 13 13 13 13 12 12 12 12 12 12 12 12 12 11 11 11 11 11 11 11 11 11 11 11 10 10 10 10 11 11 10 10 11 11 11 10 11 11 11
14 13 13 13 13 13 12 12 12 12 12 12 12 11 11 11 11 11 11 11 11 11 11 11 11 11 10 10 10 10 10 10 10 10 10 10 10 10 10 10 10 10 10
13 13 13 13 13 12 12 12 12 12 12 11 11 11 11 11 11 11 11 11 11 11 10 10 10 10 10 10 10 10 10 10 10 10 10 10 10 10 10 10 10 10 10
13 13 13 12 12 12 12 12 11 11 11 11 11 11 11 11 11 11 11 11 10 10 10 10 10 10 10 10 10 10 10 10 10 10 10 10 10 10 10 10 10 10 9
13 13 12 12 12 12 11 11 11 11 11 11 11 11 11 11 11 11 10 10 10 10 10 10 10 10 10 10 10 10 10 10 10 10 10 10 10 10 10 10 9 9 9
12 12 12 12 12 12 11 11 11 11 11 11 11 11 11 11 10 10 10 10 10 10 10 10 10 10 10 10 9 9 9 9 9 9 9 9 9 10 9 9 9 9 9
12 12 12 12 12 11 11 11 11 11 11 11 11 10 10 10 10 10 10 10 10 10 10 9 9 9 9 9 9 9 9 9 9 9 9 9 9 9 9 9 9 9 9
12 12 11 11 11 11 11 11 11 10 10 10 10 10 10 10 10 10 10 10 10 10 9 9 9 9 9 9 9 9 9 9 9 8 9 8 8 8 8 9 9 9 9
Wind_Speed
3 3 4 5 6 6 6 5 5 6 6 7 7 7 6 7 7 7 7 9 8 7 7 7 6 7 6 6 6 5 5 5 5 4 4 3 3 3 2 2 2 2 1
3 3 3 3 4 5 6 5 5 5 4 5 5 6 5 6 7 7 7 8 9 9 8 8 7 7 7 6 6 6 6 6 5 5 4 3 3 2 2 1 1 1 1
5 3 3 3 3 5 6 5 5 5 4 4 5 4 5 5 6 6 7 7 7 8 8 8 7 7 6 6 6 5 5 5 5 5 4 3 3 3 2 1 1 1 0
5 4 3 2 3 5 4 3 3 4 4 4 3 3 4 4 5 5 6 7 6 6 7 8 7 6 5 6 6 5 4 5 5 5 5 4 3 3 3 2 1 0 0
5 4 3 2 4 4 3 3 3 3 3 3 3 3 3 3 4 5 5 6 6 6 6 7 7 6 6 5 5 5 4 4 5 5 5 5 4 3 3 2 1 1 1
5 5 3 3 3 3 3 3 3 3 2 2 3 4 3 3 3 4 4 5 6 6 6 6 6 5 5 4 4 4 4 4 5 5 6 6 5 5 4 2 1 2 2
4 4 3 3 3 3 2 3 3 3 2 2 3 3 3 3 3 3 3 4 5 6 6 5 5 4 4 4 4 4 4 4 5 5 6 7 7 7 7 5 5 4 3
4 4 4 3 2 3 3 2 3 2 1 1 2 2 2 4 3 3 3 3 4 5 5 5 4 4 4 3 4 4 4 4 5 5 6 6 7 8 8 8 7 6 4
3 4 4 3 2 2 2 2 3 3 2 0 1 2 2 1 2 3 3 3 4 3 4 4 4 4 3 3 3 3 4 4 5 5 5 6 6 7 8 8 7 7 6
2 3 3 3 3 2 2 2 2 2 3 1 0 1 1 3 2 1 3 3 3 3 4 4 4 4 4 3 3 4 4 4 5 5 5 5 6 6 6 7 6 7 6
1 1 2 2 2 2 2 2 2 2 2 3 2 1 1 1 2 2 1 3 3 3 3 3 3 3 3 3 3 4 4 5 5 6 6 5 6 6 5 6 6 6 6
1 0 1 2 2 2 2 2 2 3 2 3 2 2 2 2 2 2 2 1 2 3 3 3 3 3 3 3 3 4 4 5 6 6 7 6 5 5 6 5 6 6 6
1 2 1 1 2 2 2 2 2 2 3 3 3 2 2 2 2 3 3 1 0 2 2 2 2 2 3 3 2 4 4 5 5 5 6 7 6 6 6 6 6 6 6
3 2 2 2 2 2 2 2 2 3 2 3 3 3 2 2 2 3 3 3 1 1 2 3 2 2 2 2 3 3 2 3 4 4 5 6 7 7 6 6 6 6 7
2 2 2 2 2 2 2 2 2 2 2 2 3 3 2 2 2 2 3 3 3 2 2 2 2 2 2 2 2 2 2 3 3 4 5 5 6 7 7 6 6 6 7
2 2 2 2 2 2 2 2 2 2 3 2 2 2 2 2 2 2 2 2 2 3 2 2 2 2 1 1 2 1 1 3 3 3 4 4 4 5 6 6 5 5 5
2 2 3 2 2 2 2 2 2 3 3 2 1 2 2 2 2 2 2 2 2 3 2 1 1 1 0 1 2 2 2 1 1 2 3 3 3 4 5 5 5 5 4
3 3 3 2 2 2 2 3 2 3 3 2 2 2 2 2 2 2 2 2 2 2 3 2 1 1 1 1 0 1 1 1 1 1 1 2 2 3 4 4 4 4 4
3 2 2 3 3 3 3 3 3 3 3 3 3 3 3 3 3 2 3 3 2 2 2 2 1 1 1 1 1 1 1 2 1 1 1 0 1 2 3 3 3 3 4
3 3 3 3 3 3 3 3 3 3 3 3 3 4 4 5 5 4 3 3 3 2 2 2 1 1 1 1 0 0 1 1 1 1 1 1 0 0 1 2 3 3 3
3 3 2 2 3 3 4 4 4 4 3 3 3 3 4 5 6 5 4 4 4 3 3 2 2 1 1 1 2 1 1 1 2 1 1 1 1 1 2 2 2 2 2
3 2 3 3 3 4 5 6 5 4 4 4 4 4 4 5 6 6 6 6 7 5 5 4 3 3 4 3 2 2 2 0 2 1 1 1 1 1 3 3 2 2 1
3 3 3 3 4 5 6 6 6 4 4 5 5 4 4 4 5 4 5 6 6 7 7 6 5 6 5 5 5 3 3 3 3 2 2 2 1 2 3 4 3 3 3
4 4 4 4 4 5 6 6 6 4 4 5 5 5 5 4 5 5 4 3 4 5 6 5 5 6 5 5 6 5 4 2 1 1 2 2 2 2 3 4 4 4 4
4 4 4 4 4 5 7 7 5 3 4 5 5 5 5 6 7 7 5 4 4 4 5 6 6 5 5 6 6 4 3 2 2 2 2 2 2 1 2 3 4 4 5
4 4 4 4 5 5 7 7 6 4 4 4 4 5 7 7 8 8 6 6 5 5 3 3 3 3 3 5 7 6 5 3 2 3 3 3 2 1 2 2 2 4 4
Wind_Direction
64 57 56 61 64 68 71 67 65 63 59 56 57 58 49 46 45 41 35 45 52 61 69 71 71 70 68 67 62 62 66 66 61 60 50 42 37 35 32 17 15 16 23
96 77 67 62 68 77 78 78 71 68 61 60 51 48 47 45 42 39 34 33 36 41 50 53 63 67 64 60 57 57 63 62 54 46 42 37 34 29 22 25 17 22 36
108 98 83 69 75 87 85 81 72 68 66 61 50 42 42 42 41 36 34 31 29 35 41 46 53 59 60 57 54 57 63 57 50 43 34 31 30 26 10 359 359 11 22
117 108 94 82 89 89 88 84 72 67 59 57 50 37 35 37 38 36 37 31 30 27 29 38 42 45 48 51 48 50 58 54 46 41 36 27 30 27 14 350 331 309 112
124 119 104 100 101 90 77 85 71 83 77 61 56 44 32 31 26 34 35 29 27 26 25 23 27 32 37 40 42 45 50 49 44 40 40 29 27 24 14 2 305 176 141
124 119 111 106 105 92 77 81 84 72 81 71 64 45 26 23 29 28 24 25 25 25 25 24 21 14 20 25 31 37 41 48 46 42 41 33 29 25 12 15 36 122 122
122 121 116 112 110 112 118 117 110 91 70 67 65 30 15 23 28 20 22 25 20 17 22 24 23 16 5 9 18 30 38 44 43 42 42 37 32 33 40 54 69 86 94
119 123 120 122 116 115 110 121 131 121 103 79 99 80 17 355 2 15 15 21 11 16 19 20 23 19 13 10 6 26 30 31 42 45 46 41 36 35 40 51 60 66 76
120 120 131 133 134 136 149 159 154 144 158 71 104 129 132 226 315 338 5 14 7 10 8 10 16 12 13 12 7 15 22 30 41 44 53 52 44 43 44 47 52 53 57
117 128 142 149 148 152 166 180 164 160 152 176 177 81 154 163 152 326 335 352 1 9 1 5 9 12 14 14 13 22 27 30 39 42 50 49 48 46 47 50 48 49 47
54 122 150 151 154 165 178 182 158 168 168 173 175 156 107 96 123 155 274 327 346 348 354 352 2 11 13 17 20 25 30 36 41 40 39 40 44 44 48 53 50 47 44
322 315 168 165 165 179 191 197 188 186 186 178 172 170 167 162 173 162 187 260 313 315 338 346 356 1 4 12 24 37 44 46 47 42 35 32 38 40 46 56 53 45 38
249 259 222 200 194 201 198 190 186 198 193 186 184 189 191 186 166 154 151 174 282 311 326 333 335 350 4 13 16 35 45 44 49 49 40 34 37 44 47 51 50 44 38
228 231 214 204 200 192 190 176 180 197 188 191 189 180 181 183 165 159 159 150 124 331 329 304 321 341 350 6 8 27 45 43 45 49 44 37 35 41 45 47 48 41 38
230 212 203 202 200 191 177 168 181 190 170 183 188 179 171 176 168 162 157 156 155 184 262 287 305 331 336 352 9 40 46 34 40 51 49 43 38 36 37 44 46 40 38
236 206 207 204 200 194 167 156 169 174 166 187 185 165 165 166 158 155 157 152 151 163 209 253 263 305 327 15 23 51 39 30 32 42 48 46 40 37 37 35 35 34 33
220 220 222 212 205 199 179 165 174 164 173 188 180 171 181 161 161 157 145 138 140 143 174 266 282 307 338 13 19 13 15 23 358 31 44 51 50 48 41 34 28 29 28
222 219 212 206 209 203 185 180 181 171 173 188 204 181 193 176 176 167 159 169 170 163 164 203 265 309 308 291 345 338 345 340 296 345 18 46 53 50 40 32 28 27 30
228 216 203 206 212 208 196 196 190 187 188 198 203 198 201 182 191 188 184 184 180 166 157 171 213 276 304 342 26 358 355 336 325 338 321 314 63 55 41 30 27 28 28
213 214 215 220 215 212 207 203 198 200 200 205 210 210 208 197 198 195 193 192 176 158 152 158 192 231 253 315 92 271 335 335 320 337 339 309 280 19 16 10 13 11 18
224 218 215 227 223 216 217 211 206 207 203 210 217 219 219 214 209 197 196 189 175 168 165 174 193 203 220 213 218 212 216 316 299 281 322 308 288 293 300 312 329 342 357
227 213 215 220 229 235 236 220 205 201 204 207 220 232 232 222 218 218 216 198 184 180 185 186 201 213 224 215 199 188 177 174 279 258 189 273 228 263 269 268 275 293 306
220 219 229 224 234 244 241 229 215 198 205 211 216 221 232 229 214 213 223 216 213 212 200 189 201 218 215 205 183 188 202 208 226 225 165 245 261 262 265 268 268 259 262
221 222 230 234 237 245 243 240 226 204 214 223 223 219 218 228 218 203 198 204 221 229 223 213 215 225 221 201 190 193 196 206 261 240 171 222 242 256 275 270 259 249 247
228 229 229 228 233 251 243 235 222 203 223 233 231 225 219 223 225 204 189 201 223 248 243 231 234 234 223 202 176 144 148 161 235 238 195 206 227 260 278 270 267 261 253
232 234 241 236 232 245 247 238 222 203 224 236 237 235 232 225 221 205 194 197 214 233 228 235 241 245 224 202 192 184 182 186 208 235 207 194 200 181 275 277 273 272 262
Height
1526 1525 1525 1525 1525 1525 1524 1524 1524 1524 1524 1524 1524 1524 1524 1525 1525 1525 1525 1524 1524 1524 1524 1524 1524 1524 1524 1525 1525 1525 1524 1524 1524 1524 1524 1524 1524 1524 1524 1524 1525 1525 1526
1527 1527 1527 1527 1526 1526 1526 1526 1526 1526 1526 1526 1526 1526 1526 1526 1526 1526 1525 1525 1525 1525 1525 1525 1524 1525 1524 1525 1524 1524 1524 1524 1524 1524 1523 1523 1523 1522 1522 1523 1523 1523 1524
1529 1528 1528 1528 1528 1528 1527 1527 1527 1527 1527 1527 1527 1527 1527 1527 1527 1527 1526 1526 1526 1525 1525 1525 1525 1525 1525 1524 1524 1524 1524 1523 1523 1523 1522 1521 1521 1521 1521 1521 1521 1521 1522
1530 1529 1529 1529 1529 1528 1528 1528 1528 1528 1528 1527 1527 1527 1527 1528 1527 1527 1527 1527 1526 1526 1526 1525 1525 1525 1525 1524 1524 1523 1523 1523 1522 1522 1521 1520 1519 1519 1518 1519 1519 1520 1521
1530 1530 1530 1530 1529 1529 1529 1529 1529 1528 1528 1528 1528 1528 1528 1528 1528 1528 1527 1527 1527 1526 1526 1525 1525 1525 1525 1524 1524 1523 1522 1522 1521 1521 1520 1519 1518 1517 1516 1516 1517 1518 1519
1530 1530 1530 1530 1530 1530 1529 1529 1529 1529 1529 1529 1528 1528 1528 1528 1528 1528 1528 1527 1527 1526 1526 1525 1525 1525 1524 1524 1524 1523 1522 1522 1521 1520 1519 1518 1517 1515 1513 1512 1514 1516 1517
1531 1530 1530 1530 1530 1530 1530 1529 1529 1529 1529 1529 1529 1528 1528 1528 1528 1528 1528 1527 1527 1526 1525 1525 1524 1524 1524 1524 1524 1523 1522 1522 1521 1520 1519 1518 1516 1513 1510 1509 1512 1514 1516
1530 1530 1530 1530 1530 1530 1529 1529 1529 1529 1529 1529 1529 1528 1528 1530 1528 1528 1528 1527 1527 1526 1525 1525 1524 1524 1524 1523 1523 1523 1522 1521 1520 1519 1519 1517 1516 1514 1512 1511 1512 1514 1515
1530 1530 1529 1529 1529 1529 1529 1529 1529 1529 1529 1529 1529 1529 1529 1528 1528 1529 1528 1528 1527 1526 1525 1525 1524 1524 1523 1523 1523 1523 1522 1521 1520 1519 1519 1518 1517 1515 1515 1514 1514 1514 1515
1530 1529 1529 1529 1528 1528 1528 1528 1528 1528 1528 1528 1528 1528 1529 1528 1528 1528 1528 1528 1527 1526 1525 1524 1524 1524 1523 1523 1523 1522 1522 1521 1520 1520 1519 1518 1518 1517 1516 1515 1515 1515 1515
1529 1528 1528 1528 1527 1527 1527 1527 1527 1527 1527 1527 1527 1527 1527 1528 1528 1527 1527 1527 1527 1526 1525 1524 1524 1524 1523 1523 1523 1522 1522 1521 1521 1520 1519 1519 1518 1517 1517 1516 1515 1515 1515
1528 1528 1527 1527 1526 1526 1525 1525 1525 1525 1526 1526 1526 1526 1526 1527 1527 1526 1526 1526 1526 1526 1525 1524 1524 1523 1523 1523 1523 1522 1522 1521 1521 1520 1519 1518 1518 1517 1517 1516 1516 1516 1516
1526 1526 1526 1525 1525 1524 1524 1523 1523 1523 1524 1524 1525 1525 1525 1526 1526 1525 1525 1525 1524 1525 1524 1524 1523 1523 1523 1523 1522 1522 1522 1521 1521 1520 1519 1518 1518 1517 1517 1517 1516 1516 1516
1525 1525 1524 1524 1523 1522 1522 1521 1521 1521 1522 1523 1523 1524 1524 1524 1524 1524 1524 1524 1523 1523 1523 1523 1523 1522 1522 1522 1522 1522 1522 1521 1521 1520 1520 1519 1518 1518 1517 1517 1516 1516 1516
1523 1523 1522 1522 1521 1520 1519 1519 1519 1519 1520 1521 1521 1522 1522 1522 1522 1522 1522 1522 1523 1522 1522 1522 1522 1521 1521 1521 1521 1521 1521 1521 1521 1520 1520 1519 1519 1518 1517 1517 1516 1516 1515
1521 1521 1520 1520 1519 1518 1518 1517 1517 1518 1518 1519 1519 1520 1520 1520 1520 1521 1521 1521 1521 1521 1520 1520 1520 1520 1520 1520 1520 1520 1520 1520 1520 1520 1519 1519 1519 1518 1517 1517 1516 1515 1515
1519 1519 1518 1518 1517 1516 1516 1516 1516 1516 1516 1517 1517 1517 1518 1518 1519 1519 1519 1519 1519 1520 1519 1519 1519 1519 1519 1519 1519 1519 1519 1519 1519 1519 1519 1518 1518 1517 1516 1516 1515 1515 1514
1516 1516 1515 1515 1515 1514 1514 1514 1514 1514 1514 1514 1515 1515 1515 1516 1516 1517 1517 1517 1518 1518 1518 1517 1517 1517 1517 1518 1518 1518 1518 1518 1518 1518 1518 1518 1517 1516 1516 1515 1514 1514 1513
1513 1513 1513 1512 1512 1512 1512 1512 1512 1512 1512 1512 1513 1513 1513 1514 1514 1515 1515 1515 1515 1516 1516 1516 1515 1515 1516 1516 1516 1516 1516 1516 1517 1517 1517 1516 1516 1515 1515 1514 1513 1513 1512
1510 1509 1509 1509 1509 1509 1509 1509 1509 1510 1510 1510 1510 1511 1511 1511 1512 1512 1512 1513 1513 1513 1513 1513 1513 1513 1513 1514 1514 1514 1514 1514 1514 1515 1515 1515 1514 1514 1513 1513 1512 1511 1511
1506 1506 1506 1506 1506 1506 1506 1506 1506 1506 1507 1507 1508 1508 1508 1509 1509 1509 1510 1510 1510 1510 1511 1511 1511 1511 1511 1511 1511 1511 1512 1512 1512 1512 1512 1513 1512 1512 1511 1511 1511 1510 1509
1502 1502 1502 1501 1502 1502 1502 1502 1503 1503 1503 1504 1504 1505 1505 1506 1506 1506 1507 1507 1507 1508 1508 1508 1508 1508 1508 1509 1509 1509 1509 1509 1509 1510 1510 1510 1510 1509 1509 1509 1509 1508 1508
1498 1498 1497 1497 1497 1498 1498 1499 1499 1500 1500 1500 1500 1501 1502 1502 1503 1503 1503 1503 1504 1505 1505 1505 1505 1505 1506 1506 1506 1506 1507 1507 1507 1507 1507 1507 1507 1507 1507 1507 1507 1506 1506
1494 1493 1493 1493 1493 1493 1494 1494 1495 1495 1495 1496 1496 1497 1497 1498 1499 1499 1499 1500 1500 1501 1501 1502 1502 1502 1503 1503 1504 1504 1504 1504 1504 1504 1504 1504 1504 1504 1504 1504 1504 1504 1503
1489 1489 1489 1489 1489 1489 1490 1490 1491 1490 1491 1491 1492 1492 1493 1494 1495 1495 1495 1496 1496 1497 1498 1498 1498 1499 1499 1500 1500 1500 1500 1500 1500 1501 1501 1501 1500 1500 1500 1501 1501 1501 1501
1484 1484 1484 1484 1484 1485 1485 1486 1486 1486 1486 1486 1487 1488 1489 1489 1490 1491 1491 1491 1492 1492 1493 1494 1494 1495 1495 1495 1496 1496 1497 1497 1497 1497 1497 1498 1497 1497 1497 1497 1497 1497 1497